Szeged, Hungary

2:49 AM CEST on September 24, 2017 (GMT +0200)
Szeged

Weather History for LHUD - June, 2013

Change the Weather History Date:

Thursday, June 13, 2013

  Actual Average (LRAR) Record (LRAR)
Temperature  
Mean Temperature 68 °F -  
Max Temperature 80 °F 79 °F 96 °F (2000)
Min Temperature 56 °F 57 °F 46 °F (2001)
Cooling Degree Days 3    
Growing Degree Days 18 (Base 50)    
Moisture  
Dew Point 58 °F    
Average Humidity 65    
Maximum Humidity 94    
Minimum Humidity 44    
Precipitation  
Precipitation 0.00 in 0.08 in - ()
Sea Level Pressure  
Sea Level Pressure 30.04 in    
Wind  
Wind Speed 9 mph ()    
Max Wind Speed 14 mph    
Max Gust Speed -    
Visibility 6.9 miles    
Events      
Averages and records for this station are not official NWS values.
T = Trace of Precipitation, MM = Missing Value Source: Averaged Metar Reports

Daily Weather History Graph

Daily Weather History Graph

Search for Another Location

Airport or City:

Trip Planner

Search our weather history database for the weather conditions in past years. The results will help you decide how hot, cold, wet, or windy it might be!

Date:

Astronomy

Jun. 13, 2013 Rise Set
Actual Time 4:47 AM CEST 8:32 PM CEST
Civil Twilight 4:08 AM CEST 9:11 PM CEST
Nautical Twilight 3:16 AM CEST 10:03 PM CEST
Astronomical Twilight 2:03 AM CEST 11:16 PM CEST
Moon 9:18 AM CEST (6/13) 11:15 PM CEST (6/13)
Length of Visible Light 17h 02m
Length of Day
15h 45m
Waxing Crescent, 19% of the Moon is Illuminated
Jun 13
Waxing Crescent
Jun 16
First Quarter
Jun 23
Full
Jun 30
Last Quarter
Jul 8
New

Hourly Weather History & Observations

Time (CEST) Temp. Heat Index Dew Point Humidity Pressure Visibility Wind Dir Wind Speed Gust Speed Precip Events Conditions
12:45 AM 62.6 °F - 57.2 °F 82% 30.01 in - NNW 8.1 mph - N/A   Clear
1:45 AM 60.8 °F - 55.4 °F 82% 30.04 in - NNW 9.2 mph - N/A   Clear
2:00 AM 61 °F - 56 °F 77% 30.02 in 25 mi NNW 8.9 mph - -   Partly Cloudy
2:45 AM 60.8 °F - 55.4 °F 82% 30.04 in - NNW 9.2 mph - N/A   Clear
3:45 AM 59.0 °F - 55.4 °F 88% 30.04 in - North 9.2 mph - N/A   Clear
4:45 AM 57.2 °F - 55.4 °F 94% 30.04 in - NNW 6.9 mph - N/A   Clear
5:45 AM 57.2 °F - 55.4 °F 94% 30.04 in - NW 8.1 mph - N/A   Clear
6:15 AM 59.0 °F - 55.4 °F 88% 30.04 in - NNW 6.9 mph - N/A   Clear
6:45 AM 62.6 °F - 55.4 °F 77% 30.04 in - North 8.1 mph - N/A   Clear
7:15 AM 64.4 °F - 55.4 °F 73% 30.06 in - North 11.5 mph - N/A   Clear
7:45 AM 66.2 °F - 55.4 °F 68% 30.06 in - North 10.4 mph - N/A   Clear
8:00 AM 66 °F - 56 °F 62% 30.05 in 25 mi North 11.2 mph - -   Partly Cloudy
8:15 AM 66.2 °F - 55.4 °F 68% 30.06 in - North 11.5 mph - N/A   Clear
8:45 AM 68.0 °F - 57.2 °F 68% 30.06 in - North 12.7 mph - N/A   Clear
9:15 AM 69.8 °F - 57.2 °F 64% 30.06 in - North 13.8 mph - N/A   Clear
9:45 AM 71.6 °F - 59.0 °F 64% 30.06 in - North 13.8 mph - N/A   Clear
10:15 AM 71.6 °F - 59.0 °F 64% 30.06 in - North 12.7 mph - N/A   Clear
10:45 AM 73.4 °F - 59.0 °F 61% 30.06 in - North 12.7 mph - N/A   Clear
11:15 AM 75.2 °F - 60.8 °F 61% 30.06 in 6.2 mi North 11.5 mph - N/A   Partly Cloudy
11:45 AM 75.2 °F - 60.8 °F 61% 30.06 in 6.2 mi North 11.5 mph - N/A   Partly Cloudy
12:15 PM 77.0 °F - 59.0 °F 54% 30.06 in 6.2 mi North 11.5 mph - N/A   Partly Cloudy
12:45 PM 77.0 °F - 62.6 °F 61% 30.06 in 6.2 mi North 10.4 mph - N/A   Partly Cloudy
1:15 PM 78.8 °F - 60.8 °F 54% 30.06 in 6.2 mi North 11.5 mph - N/A   Partly Cloudy
1:45 PM 78.8 °F - 60.8 °F 54% 30.04 in 6.2 mi North 10.4 mph - N/A   Partly Cloudy
2:00 PM 78 °F - 61 °F 46% 30.04 in 25 mi North 11.2 mph - -   Partly Cloudy
2:15 PM 78.8 °F - 59.0 °F 51% 30.04 in 6.2 mi North 12.7 mph - N/A   Scattered Clouds
2:45 PM 80.6 °F 81.5 °F 60.8 °F 51% 30.04 in 6.2 mi North 9.2 mph - N/A   Scattered Clouds
3:15 PM 80.6 °F 80.8 °F 57.2 °F 45% 30.04 in 6.2 mi North 10.4 mph - N/A   Scattered Clouds
3:45 PM 80.6 °F 81.5 °F 60.8 °F 51% 30.04 in 6.2 mi NNE 9.2 mph - N/A   Scattered Clouds
4:15 PM 80.6 °F 81.1 °F 59.0 °F 48% 30.01 in 6.2 mi North 10.4 mph - N/A   Scattered Clouds
4:45 PM 78.8 °F - 60.8 °F 54% 30.01 in 6.2 mi North 10.4 mph - N/A   Scattered Clouds
5:15 PM 78.8 °F - 57.2 °F 47% 30.01 in 6.2 mi NNW 10.4 mph - N/A   Scattered Clouds
5:45 PM 78.8 °F - 55.4 °F 44% 30.01 in 6.2 mi NNW 11.5 mph - N/A   Partly Cloudy
6:15 PM 78.8 °F - 57.2 °F 47% 30.01 in 6.2 mi NNW 10.4 mph - N/A   Partly Cloudy
6:45 PM 78.8 °F - 57.2 °F 47% 30.01 in 6.2 mi NNW 8.1 mph - N/A   Partly Cloudy
7:15 PM 77.0 °F - 59.0 °F 54% 30.01 in 6.2 mi NNW 6.9 mph - N/A   Partly Cloudy
7:45 PM 75.2 °F - 59.0 °F 57% 30.01 in - NNW 5.8 mph - N/A   Clear
8:00 PM 76 °F - 59 °F 46% 30.00 in 19 mi NNW 6.7 mph - -   Partly Cloudy
8:45 PM 69.8 °F - 60.8 °F 73% 30.04 in - NNW 4.6 mph - N/A   Clear
9:15 PM 68.0 °F - 60.8 °F 78% 30.04 in - NNW 4.6 mph - N/A   Clear
9:45 PM 66.2 °F - 60.8 °F 83% 30.04 in - NW 4.6 mph - N/A   Clear
10:45 PM 64.4 °F - 60.8 °F 88% 30.04 in - NNW 3.5 mph - N/A   Clear
11:45 PM 60.8 °F - 59.0 °F 94% 30.04 in - NW 2.3 mph - N/A   Clear